File timestamp: Fri Sep  2 02:00:00 2016, Internal temp: 18.9208984375
1472781601, -0.00311790034174919, -0.0933153927326202, 0.121109835803509, 32596, 31811, 23297, -141.902740478516
1472781602, 0.0173361990600824, -0.0928560793399811, 0.120807990431786, 32594, 31815, 23308, NaN
1472781603.008, 0.0410484485328197, -0.0929049849510193, 0.12127797305584, 32600, 31814, 23305, NaN
1472781604.008, 0.0680975914001465, -0.0921068340539932, 0.12060434371233, 32598, 31803, 23316, NaN
1472781605.008, 0.0968846827745438, -0.0919800996780396, 0.120206937193871, 32592, 31807, 23322, NaN
1472781606.008, 0.093819372355938, -0.0931669846177101, 0.121358506381512, 32584, 31808, 23320, NaN
1472781607.008, 0.0597806461155415, -0.0934497341513634, 0.12092399597168, 32596, 31808, 23314, NaN
1472781608.008, 0.0310024283826351, -0.0939424559473991, 0.120948269963264, 32592, 31809, 23316, NaN
1472781609.008, 0.00703884940594435, -0.0940993502736092, 0.121019534766674, 32596, 31822, 23312, NaN
1472781610.008, -0.012545008212328, -0.0946545824408531, 0.121504954993725, 32599, 31814, 23311, NaN
1472781611.008, -0.0281714517623186, -0.0944186598062515, 0.121163375675678, 32607, 31814, 23307, NaN
1472781612.008, -0.0402484983205795, -0.0948877260088921, 0.121120266616344, 32593, 31810, 23303, NaN
1472781613.008, -0.0491682402789593, -0.0945355966687202, 0.121224537491798, 32579, 31803, 23317, NaN
1472781614.008, -0.0553053244948387, -0.0949074625968933, 0.121270716190338, 32597, 31811, 23313, NaN
1472781615.008, -0.0590155646204948, -0.0959159806370735, 0.120737515389919, 32584, 31806, 23303, NaN
1472781616.016, -0.0606347694993019, -0.0964244902133942, 0.120607145130634, 32600, 31814, 23309, NaN
1472781617.016, -0.0604777783155441, -0.0958698987960815, 0.120277769863605, 32587, 31814, 23314, NaN
1472781618.016, -0.0588377192616463, -0.0953824818134308, 0.120936624705791, 32591, 31808, 23310, NaN
1472781619.016, -0.0559855177998543, -0.0947623923420906, 0.122018717229366, 32599, 31819, 23325, NaN
1472781620.016, -0.0521696172654629, -0.0949415117502213, 0.122047573328018, 32603, 31804, 23306, NaN
1472781621.016, -0.047615971416235, -0.0950168669223785, 0.121934466063976, 32590, 31808, 23315, NaN
1472781622.016, -0.0425282195210457, -0.0954967811703682, 0.121915422379971, 32607, 31816, 23305, NaN
1472781623.016, -0.0370880663394928, -0.0952340364456177, 0.122847124934196, 32602, 31830, 23311, NaN
1472781624.016, -0.0314558893442154, -0.0949471518397331, 0.123300679028034, 32604, 31807, 23316, NaN
1472781625.016, -0.0257714670151472, -0.0949500352144241, 0.123317696154118, 32597, 31812, 23317, NaN
1472781626.016, -0.0201548654586077, -0.0949905216693878, 0.12331859767437, 32600, 31811, 23305, NaN
1472781627.024, -0.0147074740380049, -0.0952766910195351, 0.124220371246338, 32599, 31822, 23317, NaN
1472781628.024, -0.00951310992240906, -0.09538434445858, 0.12466836720705, 32595, 31809, 23315, NaN
1472781629.024, -0.00463921716436744, -0.0952196940779686, 0.124689549207687, 32597, 31808, 23311, NaN
1472781629.024, -0.000138125091325492, -0.0950149968266487, 0.125373750925064, 32611, 31818, 23305, NaN
1472781630.03, 0.00395166082307696, -0.0953355431556702, 0.125371024012566, 32595, 31807, 23304, NaN
1472781631.03, 0.00760414684191346, -0.0951612666249275, 0.125056028366089, 32608, 31805, 23314, NaN
1472781632.03, 0.0108045348897576, -0.0945084467530251, 0.125764086842537, 32583, 31818, 23324, NaN
1472781633.03, 0.0135479308664799, -0.0941934883594513, 0.126059427857399, 32593, 31815, 23309, NaN
1472781634.03, 0.0158380698412657, -0.0941179320216179, 0.126845225691795, 32595, 31809, 23294, NaN
1472781635.03, 0.0176860950887203, -0.094341367483139, 0.127044200897217, 32591, 31805, 23316, NaN
1472781636.03, 0.0191093850880861, -0.0940694585442543, 0.127059817314148, 32602, 31811, 23316, NaN
1472781637.04, 0.0187590029090643, -0.0944987386465073, 0.127713367342949, 32581, 31814, 23315, NaN
1472781638.04, 0.0152372140437365, -0.0940410122275352, 0.127116471529007, 32603, 31808, 23293, NaN
1472781638.04, 0.0105879530310631, -0.094275027513504, 0.127443611621857, 32578, 31824, 23323, NaN
1472781639.048, 0.00607526116073132, -0.0941123068332672, 0.128257691860199, 32591, 31811, 23319, NaN
1472781640.048, 0.000927361310459673, -0.0948828309774399, 0.128525123000145, 32581, 31814, 23325, NaN
1472781641.048, -0.00348435342311859, -0.0938727930188179, 0.12812040746212, 32598, 31807, 23296, NaN
1472781642.048, -0.00718636717647314, -0.0939444601535797, 0.129214227199554, 32602, 31815, 23296, NaN
1472781642.048, -0.0102700106799603, -0.0937981978058815, 0.129007086157799, 32600, 31810, 23311, NaN
1472781643.052, -0.0123782213777304, -0.0938792154192924, 0.128964215517044, 32598, 31815, 23307, NaN
1472781644.052, -0.0134312305599451, -0.0942501500248909, 0.129358664155006, 32613, 31818, 23306, NaN
1472781645.052, -0.0137213738635182, -0.0948648080229759, 0.129525661468506, 32592, 31810, 23315, NaN
1472781646.052, -0.0129678696393967, -0.0940479263663292, 0.129727110266685, 32596, 31808, 23307, NaN
1472781647.052, -0.0111958896741271, -0.0945492386817932, 0.129595890641212, 32604, 31822, 23302, NaN
1472781648.062, -0.0081539573147893, -0.0939211770892143, 0.129820004105568, 32591, 31813, 23323, NaN
1472781649.062, -0.00517988950014114, -0.0938792377710342, 0.129839688539505, 32594, 31805, 23311, NaN
1472781650.062, -0.00167735444847494, -0.093667559325695, 0.129930287599564, 32590, 31812, 23321, NaN
1472781651.062, 0.00203002453781664, -0.0939794331789017, 0.130002692341805, 32595, 31825, 23314, NaN
1472781651.062, 0.00571749499067664, -0.0939807146787643, 0.130634889006615, 32592, 31810, 23312, NaN
1472781652.066, 0.00977959204465151, -0.0945016220211983, 0.130313232541084, 32593, 31823, 23309, NaN
1472781653.066, 0.0139754367992282, -0.093984991312027, 0.130439683794975, 32596, 31810, 23310, NaN
1472781654.066, 0.0176448058336973, -0.0934150964021683, 0.129400789737701, 32594, 31809, 23307, NaN
1472781655.066, 0.0218514911830425, -0.0937880575656891, 0.129885584115982, 32589, 31813, 23318, NaN
1472781656.066, 0.0257658772170544, -0.0944292470812798, 0.12983438372612, 32603, 31808, 23304, NaN
1472781657.066, 0.0299104042351246, -0.0936845019459724, 0.130155444145203, 32586, 31813, 23317, -140.636856079102
1472781658.076, 0.0331597924232483, -0.0929894894361496, 0.130171418190002, 32578, 31810, 23313, NaN
1472781659.076, 0.0362563319504261, -0.0933491513133049, 0.13005456328392, 32601, 31818, 23302, NaN
1472781660.076, 0.0390926785767078, -0.0936762169003487, 0.130118161439896, 32593, 31815, 23312, NaN
1472781661.076, 0.0408462323248386, -0.0939830392599106, 0.129617944359779, 32595, 31812, 23314, NaN
1472781662.076, 0.0418369844555855, -0.0942096710205078, 0.130023568868637, 32585, 31816, 23324, NaN
1472781663.076, 0.0409035086631775, -0.0938446372747421, 0.129481986165047, 32606, 31817, 23306, NaN
1472781664.076, 0.0393451489508152, -0.0932895988225937, 0.128627181053162, 32586, 31814, 23323, NaN
1472781665.076, 0.0375952199101448, -0.0929390639066696, 0.128615543246269, 32596, 31817, 23326, NaN
1472781666.076, 0.0383112281560898, -0.0930330157279968, 0.129264548420906, 32596, 31805, 23307, NaN
1472781667.076, 0.0443717911839485, -0.0922487378120422, 0.128512367606163, 32589, 31815, 23302, NaN
1472781668.076, 0.0556329376995564, -0.0921297669410706, 0.129393547773361, 32601, 31810, 23306, NaN
1472781669.076, 0.0719568654894829, -0.0926953479647636, 0.129455983638763, 32583, 31807, 23302, NaN
1472781669.076, 0.0919294878840446, -0.0923533290624619, 0.128939807415009, 32597, 31819, 23309, NaN
1472781670.084, 0.115290477871895, -0.0928109288215637, 0.128208220005035, 32594, 31813, 23319, NaN
1472781671.084, 0.139969915151596, -0.0928568467497826, 0.127817615866661, 32603, 31812, 23303, NaN
1472781672.084, 0.0976165533065796, -0.0928036868572235, 0.127360478043556, 32600, 31815, 23319, NaN
1472781673.084, 0.0569370128214359, -0.0926730781793594, 0.127190485596657, 32601, 31813, 23307, NaN
1472781674.084, 0.0222719646990299, -0.0930566117167473, 0.127655163407326, 32596, 31820, 23309, NaN
1472781675.084, -0.00681771244853735, -0.0930977389216423, 0.127405002713203, 32599, 31820, 23305, NaN
1472781676.084, -0.0307732652872801, -0.0923421606421471, 0.126755192875862, 32601, 31816, 23306, NaN
1472781677.084, -0.0500346496701241, -0.0929837599396706, 0.127589955925941, 32589, 31810, 23309, NaN
1472781678.084, -0.0650371611118317, -0.0927176177501678, 0.127846896648407, 32596, 31807, 23309, NaN
1472781679.084, -0.0762081369757652, -0.0919011011719704, 0.127891376614571, 32603, 31813, 23302, NaN
1472781680.084, -0.083963930606842, -0.092330239713192, 0.12884521484375, 32590, 31810, 23315, NaN
1472781681.092, -0.0887070372700691, -0.0925693586468697, 0.128312334418297, 32602, 31809, 23309, NaN
1472781682.092, -0.0908235907554626, -0.0925406441092491, 0.128392308950424, 32592, 31804, 23323, NaN
1472781683.092, -0.090681180357933, -0.092068113386631, 0.128705516457558, 32597, 31813, 23315, NaN
1472781683.092, -0.0886269584298134, -0.0933152511715889, 0.128350973129272, 32594, 31800, 23314, NaN
1472781684.098, -0.084986187517643, -0.0930306166410446, 0.128209471702576, 32593, 31807, 23321, NaN
1472781685.098, -0.0800610780715942, -0.092561312019825, 0.128196492791176, 32589, 31807, 23322, NaN
1472781686.098, -0.0741299763321877, -0.0932551696896553, 0.12746986746788, 32594, 31804, 23324, NaN
1472781687.098, -0.0674469545483589, -0.0928961932659149, 0.127941310405731, 32584, 31809, 23316, NaN
1472781688.098, -0.0602416135370731, -0.0918289870023727, 0.128042668104172, 32595, 31801, 23305, NaN
1472781689.098, -0.0527192503213882, -0.0923886969685555, 0.128107771277428, 32599, 31814, 23306, NaN
1472781690.098, -0.0450612716376781, -0.0923942998051643, 0.127352938055992, 32599, 31811, 23307, NaN
1472781691.098, -0.037425834685564, -0.0925780981779099, 0.12887442111969, 32596, 31816, 23309, NaN
1472781692.108, -0.0299486983567476, -0.093094140291214, 0.129412516951561, 32585, 31806, 23319, NaN
1472781692.108, -0.0227442681789398, -0.0920122787356377, 0.129466310143471, 32592, 31821, 23309, NaN
1472781693.116, -0.0159067586064339, -0.0913477763533592, 0.128931224346161, 32588, 31818, 23323, NaN
1472781694.116, -0.00951150618493557, -0.091769739985466, 0.129136994481087, 32595, 31818, 23316, NaN
1472781695.116, -0.00361634558066726, -0.0914942249655724, 0.129498898983002, 32595, 31827, 23311, NaN
1472781696.116, 0.0017369317356497, -0.0909166634082794, 0.129079788923264, 32588, 31811, 23318, NaN
1472781696.116, 0.00652109272778034, -0.090865284204483, 0.128325581550598, 32582, 31812, 23324, NaN
1472781697.12, 0.0107219582423568, -0.090370886027813, 0.128135070204735, 32597, 31809, 23306, NaN
1472781698.12, 0.0143369063735008, -0.0897562727332115, 0.128390625119209, 32595, 31805, 23306, NaN
1472781699.12, 0.0172244813293219, -0.090091198682785, 0.128852009773254, 32593, 31825, 23312, NaN
1472781700.12, 0.0169508345425129, -0.0898455753922462, 0.127855867147446, 32590, 31813, 23319, NaN
1472781701.12, 0.0141154509037733, -0.0895321667194366, 0.127836510539055, 32587, 31819, 23300, NaN
1472781702.13, 0.00973134860396385, -0.0897215157747269, 0.127627715468407, 32588, 31801, 23314, NaN
1472781703.13, 0.00539990933611989, -0.0902442932128906, 0.128089666366577, 32598, 31802, 23309, NaN
1472781704.13, 0.000815530016552657, -0.0906415730714798, 0.1282879114151, 32588, 31814, 23299, NaN
1472781705.13, -0.00280526233837008, -0.0906908810138702, 0.127933457493782, 32590, 31803, 23313, NaN
1472781705.13, -0.00584427546709776, -0.0905374735593796, 0.128201261162758, 32598, 31811, 23311, NaN
1472781706.136, -0.00910346116870642, -0.0904847234487534, 0.127519592642784, 32597, 31818, 23305, NaN
1472781707.136, -0.00947466865181923, -0.0901234149932861, 0.127932816743851, 32589, 31822, 23317, NaN
1472781708.136, -0.00925406627357006, -0.0903974920511246, 0.127362191677094, 32600, 31821, 23321, NaN
1472781709.136, -0.00864944700151682, -0.0898356065154076, 0.126615345478058, 32598, 31819, 23311, NaN
1472781709.136, -0.00634302198886871, -0.0904921665787697, 0.126714020967484, 32584, 31809, 23308, NaN
1472781710.136, -0.00241106539033353, -0.0895055755972862, 0.126565024256706, 32596, 31810, 23323, NaN
1472781711.136, 0.00216685049235821, -0.0886670500040054, 0.12663197517395, 32602, 31811, 23318, -141.393768310547
1472781712.146, 0.00638047279790044, -0.088709220290184, 0.126221731305122, 32594, 31812, 23313, NaN
1472781713.146, 0.0110906530171633, -0.0879746079444885, 0.126804381608963, 32588, 31805, 23330, NaN
1472781714.146, 0.0161956660449505, -0.0878429263830185, 0.126645609736443, 32583, 31814, 23316, NaN
1472781715.146, 0.021632831543684, -0.0876552909612656, 0.126515761017799, 32591, 31820, 23319, NaN
1472781716.146, 0.0276179146021605, -0.0880010724067688, 0.126677230000496, 32594, 31804, 23310, NaN
1472781717.146, 0.0331047810614109, -0.0880084112286568, 0.127161905169487, 32591, 31801, 23314, NaN
1472781718.146, 0.0385467819869518, -0.0874738991260529, 0.127161771059036, 32604, 31808, 23308, NaN
1472781719.146, 0.0436160042881966, -0.0866855978965759, 0.1274284273386, 32588, 31813, 23307, NaN
1472781720.146, 0.0481233038008213, -0.0874768868088722, 0.12736551463604, 32599, 31812, 23306, NaN
1472781721.146, 0.0513300113379955, -0.0871535390615463, 0.127381131052971, 32593, 31817, 23312, NaN
1472781722.146, 0.0522235259413719, -0.0872970297932625, 0.12756073474884, 32602, 31812, 23311, NaN
1472781723.146, 0.0526805557310581, -0.0870116651058197, 0.127480551600456, 32592, 31817, 23315, NaN
1472781724.154, 0.0520479045808315, -0.0865235477685928, 0.127199590206146, 32584, 31810, 23306, NaN
1472781725.154, 0.0514419190585613, -0.086874321103096, 0.126482039690018, 32598, 31810, 23318, NaN
1472781726.154, 0.051947932690382, -0.0870053321123123, 0.126243814826012, 32594, 31815, 23314, NaN
1472781727.154, 0.0561547055840492, -0.0869540497660637, 0.126066952943802, 32587, 31817, 23307, NaN
1472781728.154, 0.0658994764089584, -0.087213322520256, 0.126000210642815, 32594, 31804, 23304, NaN
1472781729.154, 0.0810948088765144, -0.0872893333435059, 0.126034319400787, 32588, 31821, 23319, NaN
1472781730.154, 0.0998204946517944, -0.0862762108445168, 0.126588016748428, 32596, 31806, 23305, NaN
1472781731.154, 0.121730767190456, -0.0859187468886375, 0.126465544104576, 32587, 31803, 23314, NaN
1472781732.154, 0.145526796579361, -0.0860310420393944, 0.126299843192101, 32603, 31810, 23314, NaN
1472781733.154, 0.112255059182644, -0.0857298374176025, 0.125279128551483, 32595, 31812, 23307, NaN
1472781734.154, 0.0725950673222542, -0.085327535867691, 0.125240206718445, 32592, 31817, 23315, NaN
1472781735.164, 0.0384631603956223, -0.0862416848540306, 0.125477075576782, 32589, 31808, 23322, NaN
1472781736.164, 0.00948556046932936, -0.0865206494927406, 0.125084802508354, 32584, 31820, 23313, NaN
1472781737.164, -0.0147169576957822, -0.0861353054642677, 0.125091642141342, 32579, 31820, 23317, NaN
1472781737.164, -0.034525990486145, -0.085111528635025, 0.124817624688148, 32604, 31822, 23293, NaN
1472781738.17, -0.050322350114584, -0.0854204818606377, 0.124209180474281, 32588, 31811, 23312, NaN
1472781739.17, -0.0624829828739166, -0.0848024114966393, 0.124172702431679, 32593, 31815, 23309, NaN
1472781740.17, -0.0713779926300049, -0.0841253101825714, 0.124421112239361, 32585, 31823, 23308, NaN
1472781741.17, -0.077367901802063, -0.0851532965898514, 0.124914653599262, 32601, 31808, 23307, NaN
1472781742.17, -0.0808010920882225, -0.0848858281970024, 0.124522104859352, 32601, 31808, 23306, NaN
1472781743.17, -0.0820116028189659, -0.0853628516197205, 0.12447702139616, 32602, 31812, 23304, NaN
1472781744.17, -0.0813171491026878, -0.0851496756076813, 0.124336987733841, 32597, 31814, 23310, NaN
1472781745.17, -0.0790175348520279, -0.0846204608678818, 0.123909041285515, 32590, 31823, 23316, NaN
1472781746.178, -0.0753933116793633, -0.0839509591460228, 0.122994214296341, 32602, 31807, 23311, NaN
1472781746.178, -0.070704810321331, -0.084165520966053, 0.122465655207634, 32592, 31816, 23314, NaN
1472781747.186, -0.0651914700865746, -0.0850894600152969, 0.122523881494999, 32601, 31812, 23308, NaN
1472781748.186, -0.059071458876133, -0.0851134359836578, 0.122404739260674, 32599, 31820, 23318, NaN
1472781749.186, -0.0525415390729904, -0.0852246657013893, 0.123000554740429, 32588, 31823, 23307, NaN
1472781750.186, -0.0457772649824619, -0.0847849249839783, 0.123098336160183, 32594, 31822, 23318, NaN
1472781750.186, -0.0389333367347717, -0.085219033062458, 0.123321279883385, 32590, 31812, 23323, NaN
1472781751.19, -0.0321442075073719, -0.0851983428001404, 0.123608931899071, 32595, 31821, 23319, NaN
1472781752.19, -0.025524852797389, -0.0846108719706535, 0.12343230843544, 32593, 31820, 23318, NaN
1472781753.19, -0.0191716905683279, -0.0843571946024895, 0.123589299619198, 32583, 31805, 23316, NaN
1472781754.19, -0.0131636448204517, -0.0841430649161339, 0.123072549700737, 32586, 31802, 23314, NaN
1472781755.19, -0.00756328646093607, -0.0838114246726036, 0.12268553674221, 32609, 31807, 23303, NaN
1472781756.2, -0.00241807079873979, -0.0843202695250511, 0.122021101415157, 32591, 31817, 23309, NaN
1472781757.2, 0.00223838514648378, -0.084405928850174, 0.121219821274281, 32596, 31802, 23310, NaN
1472781758.2, 0.00638498878106475, -0.0849736034870148, 0.121739707887173, 32597, 31809, 23313, NaN
1472781759.2, 0.0100118527188897, -0.0848714336752892, 0.122022420167923, 32595, 31819, 23318, NaN
1472781759.2, 0.0131189785897732, -0.0845108181238174, 0.121761702001095, 32601, 31804, 23314, NaN
1472781760.206, 0.0153905684128404, -0.0853831693530083, 0.121552616357803, 32604, 31812, 23299, NaN
1472781761.206, 0.015231222845614, -0.0858310982584953, 0.121600449085236, 32598, 31826, 23310, NaN
1472781762.206, 0.0126715572550893, -0.0855326876044273, 0.121253006160259, 32602, 31815, 23305, NaN
1472781763.206, 0.00887924619019032, -0.0858862847089767, 0.121414810419083, 32592, 31813, 23318, NaN
1472781763.206, 0.00448641739785671, -0.0860520228743553, 0.120743170380592, 32596, 31813, 23303, NaN
1472781764.208, 0.000891811680048704, -0.0859538093209267, 0.121363379061222, 32589, 31807, 23309, NaN
1472781765.208, -0.00308762327767909, -0.0859321653842926, 0.121747829020023, 32594, 31816, 23316, NaN
1472781766.218, -0.00711823860183358, -0.0856707990169525, 0.121389925479889, 32595, 31816, 23312, -144.234283447266
1472781767.218, -0.00971927121281624, -0.0860064700245857, 0.121844686567783, 32585, 31806, 23307, NaN
1472781767.218, -0.0112213939428329, -0.086031474173069, 0.12147045135498, 32594, 31805, 23316, NaN
1472781768.226, -0.0123818572610617, -0.0850132927298546, 0.122143723070621, 32598, 31801, 23294, NaN
1472781769.226, -0.011666445992887, -0.0845835134387016, 0.121616050601006, 32600, 31821, 23308, NaN
1472781770.226, -0.0096995560452342, -0.0855118483304977, 0.12136285752058, 32601, 31807, 23309, NaN
1472781771.226, -0.00655799312517047, -0.08629459887743, 0.120791375637054, 32590, 31810, 23321, NaN
1472781772.226, -0.00272811576724052, -0.0869714468717575, 0.120286293327808, 32597, 31818, 23301, NaN
1472781773.226, 0.00076923769665882, -0.0870624110102654, 0.120268829166889, 32595, 31814, 23311, NaN
1472781774.226, 0.00464177876710892, -0.0870422869920731, 0.120372503995895, 32598, 31806, 23312, NaN
1472781775.226, 0.010258611291647, -0.0872556641697884, 0.120933279395103, 32600, 31811, 23316, NaN
1472781776.226, 0.0158027391880751, -0.0873021185398102, 0.120520696043968, 32601, 31815, 23312, NaN
1472781777.234, 0.020590016618371, -0.087588407099247, 0.121339745819569, 32608, 31812, 23305, NaN
1472781778.234, 0.0256062597036362, -0.0879364833235741, 0.121646866202354, 32598, 31812, 23306, NaN
1472781779.234, 0.0307203102856874, -0.0886294916272163, 0.122294425964355, 32589, 31814, 23318, NaN
1472781780.234, 0.0348825938999653, -0.0888125896453857, 0.121963500976562, 32589, 31817, 23317, NaN
1472781781.234, 0.0380953848361969, -0.0892500653862953, 0.122611872851849, 32592, 31818, 23313, NaN
1472781782.234, 0.0401462614536285, -0.0896848812699318, 0.122796125710011, 32593, 31812, 23304, NaN
1472781783.234, 0.0407563261687756, -0.0899023339152336, 0.12333345413208, 32605, 31806, 23310, NaN
1472781784.234, 0.0411731265485287, -0.0893619656562805, 0.123291306197643, 32593, 31822, 23315, NaN
1472781785.234, 0.0407995246350765, -0.0888739675283432, 0.122274093329906, 32583, 31803, 23307, NaN
1472781786.234, 0.0403830818831921, -0.0889492034912109, 0.122278913855553, 32597, 31806, 23311, NaN
1472781787.234, 0.0396508574485779, -0.0888777747750282, 0.122643172740936, 32607, 31808, 23297, NaN
1472781788.234, 0.038792796432972, -0.0886000245809555, 0.123789064586163, 32599, 31824, 23325, NaN
1472781789.242, 0.0360215120017529, -0.0891448184847832, 0.123794347047806, 32584, 31817, 23318, NaN
1472781790.242, 0.0318804532289505, -0.0884547084569931, 0.124501541256905, 32592, 31816, 23304, NaN
1472781790.242, 0.0272822231054306, -0.088413380086422, 0.125021830201149, 32599, 31815, 23308, NaN
1472781791.248, 0.0236013364046812, -0.0884343087673187, 0.124899968504906, 32596, 31815, 23307, NaN
1472781792.248, 0.0197257269173861, -0.0882425829768181, 0.125225588679314, 32597, 31804, 23312, NaN
1472781793.248, 0.0155133679509163, -0.0883746296167374, 0.124874480068684, 32593, 31805, 23309, NaN
1472781794.248, 0.0117382109165192, -0.0886868536472321, 0.124961204826832, 32586, 31824, 23304, NaN
1472781795.248, 0.00835504569113255, -0.088546983897686, 0.125395178794861, 32586, 31810, 23306, NaN
1472781796.248, 0.00428456813097, -0.0881188809871674, 0.125234916806221, 32589, 31812, 23319, NaN
1472781797.248, -0.000183224154170603, -0.088492825627327, 0.125177398324013, 32604, 31815, 23304, NaN
1472781798.248, -0.00471047218888998, -0.0888677537441254, 0.125399470329285, 32598, 31821, 23313, NaN
1472781799.248, -0.00921934377402067, -0.0886856615543365, 0.125051662325859, 32592, 31808, 23309, NaN
1472781799.248, -0.0128430370241404, -0.0885239914059639, 0.125265464186668, 32598, 31810, 23306, NaN
1472781800.256, -0.0148246828466654, -0.0890356451272964, 0.125928312540054, 32602, 31798, 23307, NaN
1472781801.256, -0.0163613613694906, -0.0893955230712891, 0.125952914357185, 32590, 31811, 23321, NaN
1472781802.256, -0.01839504763484, -0.0890228524804115, 0.125170737504959, 32594, 31809, 23313, NaN
1472781803.256, -0.0208592843264341, -0.0883297175168991, 0.125898748636246, 32595, 31827, 23303, NaN
1472781803.256, -0.0243216995149851, -0.0887732431292534, 0.125582188367844, 32591, 31826, 23307, NaN
1472781804.26, -0.0265259183943272, -0.0896320194005966, 0.126015543937683, 32592, 31816, 23317, NaN
1472781805.26, -0.02731853723526, -0.0897719040513039, 0.127630367875099, 32597, 31812, 23301, NaN
1472781806.26, -0.0266385208815336, -0.089984305202961, 0.128125831484795, 32587, 31818, 23304, NaN
1472781807.26, -0.0244766194373369, -0.0894537344574928, 0.128656536340714, 32591, 31813, 23328, NaN
1472781808.26, -0.0220437366515398, -0.089320182800293, 0.128910332918167, 32593, 31809, 23313, NaN
1472781809.268, -0.0194778218865395, -0.0894202888011932, 0.129158273339272, 32598, 31814, 23318, NaN
1472781810.268, -0.0176283568143845, -0.0888761654496193, 0.130021318793297, 32598, 31821, 23316, NaN
1472781811.268, -0.0164121948182583, -0.089002937078476, 0.129431635141373, 32586, 31825, 23315, NaN
1472781812.268, -0.0150805851444602, -0.0886614248156548, 0.12980592250824, 32600, 31807, 23310, NaN
1472781812.268, -0.0129149807617068, -0.088639922440052, 0.129419505596161, 32591, 31807, 23315, NaN
1472781813.274, -0.0107216732576489, -0.0887806415557861, 0.130402058362961, 32591, 31823, 23315, NaN
1472781814.274, -0.00870307255536318, -0.0893893912434578, 0.13022792339325, 32605, 31820, 23319, NaN
1472781815.274, -0.00681604677811265, -0.0899601057171822, 0.130008801817894, 32596, 31815, 23310, NaN
1472781816.274, -0.0052197421900928, -0.0902192518115044, 0.130038723349571, 32604, 31816, 23309, NaN